TimeEST,TemperatureF,Dew PointF,Humidity,Sea Level PressureIn,VisibilityMPH,Wind Direction,Wind SpeedMPH,Gust SpeedMPH,PrecipitationIn,Events,Conditions,WindDirDegrees,DateUTC
12:53 AM,73.9,64.9,73,30.15,10.0,East,9.2,-,N/A,,Partly Cloudy,80,2013-12-20 05:53:00
1:53 AM,72.0,66.0,81,30.14,10.0,East,8.1,-,N/A,,Scattered Clouds,90,2013-12-20 06:53:00
2:53 AM,73.0,64.9,76,30.14,10.0,East,9.2,-,N/A,,Mostly Cloudy,90,2013-12-20 07:53:00
3:53 AM,75.0,64.9,71,30.13,10.0,East,12.7,-,N/A,,Mostly Cloudy,80,2013-12-20 08:53:00
4:53 AM,75.0,64.9,71,30.14,10.0,East,13.8,-,N/A,,Mostly Cloudy,90,2013-12-20 09:53:00
5:53 AM,75.0,66.0,73,30.15,10.0,East,10.4,-,N/A,,Mostly Cloudy,80,2013-12-20 10:53:00
6:47 AM,75.2,66.2,73,30.16,10.0,East,13.8,-,N/A,,Overcast,90,2013-12-20 11:47:00
6:53 AM,75.9,66.0,71,30.16,10.0,East,11.5,-,N/A,,Overcast,90,2013-12-20 11:53:00
7:53 AM,75.9,66.0,71,30.17,10.0,East,17.3,-,N/A,,Mostly Cloudy,100,2013-12-20 12:53:00
8:53 AM,78.1,66.0,66,30.18,10.0,East,18.4,-,N/A,,Scattered Clouds,100,2013-12-20 13:53:00
9:53 AM,80.1,64.9,60,30.19,10.0,East,17.3,23.0,N/A,,Partly Cloudy,100,2013-12-20 14:53:00
10:37 AM,80.6,66.2,61,30.19,10.0,East,20.7,-,N/A,,Mostly Cloudy,100,2013-12-20 15:37:00
10:49 AM,80.6,66.2,61,30.19,10.0,ESE,20.7,26.5,N/A,,Scattered Clouds,120,2013-12-20 15:49:00
10:53 AM,80.1,66.0,62,30.19,10.0,ESE,19.6,26.5,N/A,,Scattered Clouds,120,2013-12-20 15:53:00
11:53 AM,80.1,66.9,64,30.18,10.0,ESE,17.3,24.2,N/A,,Mostly Cloudy,110,2013-12-20 16:53:00
12:07 PM,82.4,66.2,58,30.17,10.0,East,18.4,23.0,N/A,,Mostly Cloudy,100,2013-12-20 17:07:00
12:23 PM,80.6,66.2,61,30.16,10.0,ESE,20.7,27.6,N/A,,Scattered Clouds,120,2013-12-20 17:23:00
12:53 PM,81.0,66.9,62,30.15,10.0,East,16.1,-,N/A,,Scattered Clouds,100,2013-12-20 17:53:00
1:11 PM,82.4,66.2,58,30.14,10.0,East,18.4,-,N/A,,Mostly Cloudy,90,2013-12-20 18:11:00
1:42 PM,80.6,66.2,61,30.13,10.0,ESE,16.1,23.0,N/A,,Scattered Clouds,110,2013-12-20 18:42:00
1:53 PM,80.1,66.9,64,30.13,10.0,ESE,16.1,-,N/A,,Scattered Clouds,110,2013-12-20 18:53:00
2:53 PM,80.1,68.0,67,30.12,10.0,ESE,13.8,-,N/A,,Scattered Clouds,110,2013-12-20 19:53:00
3:53 PM,79.0,68.0,69,30.12,10.0,East,17.3,-,N/A,,Scattered Clouds,100,2013-12-20 20:53:00
4:39 PM,78.8,68.0,69,30.12,10.0,East,11.5,-,N/A,,Mostly Cloudy,100,2013-12-20 21:39:00
4:49 PM,78.8,68.0,69,30.12,10.0,East,11.5,-,N/A,,Scattered Clouds,100,2013-12-20 21:49:00
4:53 PM,78.1,68.0,71,30.12,10.0,East,12.7,-,N/A,,Scattered Clouds,90,2013-12-20 21:53:00
5:53 PM,77.0,69.1,76,30.13,10.0,East,16.1,-,N/A,,Scattered Clouds,100,2013-12-20 22:53:00
6:53 PM,77.0,69.1,76,30.14,10.0,East,13.8,-,N/A,,Mostly Cloudy,90,2013-12-20 23:53:00
7:53 PM,77.0,70.0,79,30.15,10.0,East,10.4,-,N/A,,Mostly Cloudy,90,2013-12-21 00:53:00
8:53 PM,78.1,69.1,74,30.17,10.0,East,11.5,-,N/A,,Overcast,90,2013-12-21 01:53:00
9:53 PM,78.1,69.1,74,30.17,10.0,East,16.1,-,N/A,,Mostly Cloudy,100,2013-12-21 02:53:00
10:53 PM,77.0,69.1,76,30.17,10.0,East,13.8,-,N/A,,Mostly Cloudy,100,2013-12-21 03:53:00
11:53 PM,77.0,70.0,79,30.16,10.0,East,16.1,20.7,N/A,,Mostly Cloudy,100,2013-12-21 04:53:00